Time,TemperatureF,DewpointF,PressureIn,WindDirection,WindDirectionDegrees,WindSpeedMPH,WindSpeedGustMPH,Humidity,HourlyPrecipIn,Conditions,Clouds,dailyrainin,SoftwareType,DateUTC
2013-07-06 00:07:00,77.3,74.0,30.14,WSW,248,9.0,-999.0,88,-99.99,,,0.00,weatherlink.com 1.10,2013-07-06 04:07:00,
2013-07-06 00:22:00,77.3,74.0,30.14,SSW,211,11.0,-999.0,89,-99.99,,,0.00,weatherlink.com 1.10,2013-07-06 04:22:00,
2013-07-06 00:37:00,76.7,73.0,30.14,South,186,9.0,-999.0,87,-99.99,,,0.00,weatherlink.com 1.10,2013-07-06 04:37:00,
2013-07-06 00:52:00,74.8,71.0,30.14,SW,214,5.0,-999.0,89,-99.99,,,0.00,weatherlink.com 1.10,2013-07-06 04:52:00,
2013-07-06 01:07:00,74.7,72.0,30.14,SSW,213,6.0,-999.0,90,-99.99,,,0.00,weatherlink.com 1.10,2013-07-06 05:07:00,
2013-07-06 01:22:00,74.7,72.0,30.13,SSW,193,7.0,-999.0,91,-99.99,,,0.00,weatherlink.com 1.10,2013-07-06 05:22:00,
2013-07-06 01:37:00,73.7,71.0,30.13,SSW,203,9.0,-999.0,91,-99.99,,,0.00,weatherlink.com 1.10,2013-07-06 05:37:00,
2013-07-06 01:52:00,73.1,71.0,30.13,SW,214,10.0,-999.0,92,-99.99,,,0.00,weatherlink.com 1.10,2013-07-06 05:52:00,
2013-07-06 02:08:00,73.1,71.0,30.13,SW,215,7.0,-999.0,93,-99.99,,,0.00,weatherlink.com 1.10,2013-07-06 06:08:00,
2013-07-06 02:23:00,73.8,72.0,30.12,SSW,212,5.0,-999.0,94,-99.99,,,0.00,weatherlink.com 1.10,2013-07-06 06:23:00,
2013-07-06 02:38:00,74.2,72.0,30.12,SW,228,4.0,-999.0,93,-99.99,,,0.00,weatherlink.com 1.10,2013-07-06 06:38:00,
2013-07-06 02:53:00,74.4,73.0,30.12,SW,228,4.0,-999.0,94,-99.99,,,0.00,weatherlink.com 1.10,2013-07-06 06:53:00,
2013-07-06 03:08:00,75.2,73.0,30.12,SW,231,7.0,-999.0,93,-99.99,,,0.00,weatherlink.com 1.10,2013-07-06 07:08:00,
2013-07-06 03:23:00,75.3,73.0,30.12,SW,217,5.0,-999.0,93,-99.99,,,0.00,weatherlink.com 1.10,2013-07-06 07:23:00,
2013-07-06 03:38:00,75.5,73.0,30.12,SW,218,5.0,-999.0,93,-99.99,,,0.00,weatherlink.com 1.10,2013-07-06 07:38:00,
2013-07-06 03:53:00,74.5,72.0,30.12,SSW,207,3.0,-999.0,92,-99.99,,,0.00,weatherlink.com 1.10,2013-07-06 07:53:00,
2013-07-06 04:08:00,72.4,70.0,30.12,SSW,207,4.0,-999.0,92,-99.99,,,0.00,weatherlink.com 1.10,2013-07-06 08:08:00,
2013-07-06 04:24:00,72.8,71.0,30.12,SSW,210,3.0,-999.0,93,-99.99,,,0.00,weatherlink.com 1.10,2013-07-06 08:24:00,
2013-07-06 04:38:00,70.7,69.0,30.12,SSW,207,5.0,-999.0,93,-99.99,,,0.00,weatherlink.com 1.10,2013-07-06 08:38:00,
2013-07-06 04:54:00,70.6,69.0,30.12,SSW,209,5.0,-999.0,94,-99.99,,,0.00,weatherlink.com 1.10,2013-07-06 08:54:00,
2013-07-06 05:09:00,70.9,69.0,30.12,SSW,210,5.0,-999.0,94,-99.99,,,0.00,weatherlink.com 1.10,2013-07-06 09:09:00,
2013-07-06 05:24:00,70.6,69.0,30.12,SSW,210,5.0,-999.0,94,-99.99,,,0.00,weatherlink.com 1.10,2013-07-06 09:24:00,
2013-07-06 05:39:00,69.7,68.0,30.12,SSW,198,5.0,-999.0,94,-99.99,,,0.00,weatherlink.com 1.10,2013-07-06 09:39:00,
2013-07-06 05:54:00,70.3,69.0,30.13,SSW,210,4.0,-999.0,95,-99.99,,,0.00,weatherlink.com 1.10,2013-07-06 09:54:00,
2013-07-06 06:09:00,70.0,69.0,30.13,SSW,200,6.0,-999.0,95,-99.99,,,0.00,weatherlink.com 1.10,2013-07-06 10:09:00,
2013-07-06 06:24:00,70.4,69.0,30.13,SSW,205,4.0,-999.0,96,-99.99,,,0.00,weatherlink.com 1.10,2013-07-06 10:24:00,
2013-07-06 06:39:00,70.8,69.0,30.13,SSW,203,1.0,-999.0,95,-99.99,,,0.00,weatherlink.com 1.10,2013-07-06 10:39:00,
2013-07-06 06:54:00,70.6,69.0,30.13,SSW,199,6.0,-999.0,95,-99.99,,,0.00,weatherlink.com 1.10,2013-07-06 10:54:00,
2013-07-06 07:09:00,71.2,70.0,30.13,SSW,203,5.0,-999.0,95,-99.99,,,0.00,weatherlink.com 1.10,2013-07-06 11:09:00,
2013-07-06 07:24:00,73.4,72.0,30.14,SW,219,6.0,-999.0,96,-99.99,,,0.00,weatherlink.com 1.10,2013-07-06 11:24:00,
2013-07-06 07:39:00,76.2,75.0,30.14,SW,232,6.0,-999.0,95,-99.99,,,0.00,weatherlink.com 1.10,2013-07-06 11:39:00,
2013-07-06 07:55:00,77.5,75.0,30.14,WSW,237,7.0,-999.0,93,-99.99,,,0.00,weatherlink.com 1.10,2013-07-06 11:55:00,
2013-07-06 08:10:00,78.8,76.0,30.14,WSW,237,5.0,-999.0,91,-99.99,,,0.00,weatherlink.com 1.10,2013-07-06 12:10:00,
2013-07-06 08:25:00,78.4,74.0,30.14,SW,222,3.0,-999.0,86,-99.99,,,0.00,weatherlink.com 1.10,2013-07-06 12:25:00,
2013-07-06 08:40:00,78.0,72.0,30.14,SSW,202,3.0,-999.0,82,-99.99,,,0.00,weatherlink.com 1.10,2013-07-06 12:40:00,
2013-07-06 08:55:00,77.9,72.0,30.14,SW,226,7.0,-999.0,81,-99.99,,,0.00,weatherlink.com 1.10,2013-07-06 12:55:00,
2013-07-06 09:10:00,77.4,72.0,30.14,SSW,192,3.0,-999.0,82,-99.99,,,0.00,weatherlink.com 1.10,2013-07-06 13:10:00,
2013-07-06 09:25:00,79.9,74.0,30.13,SSW,205,4.0,-999.0,81,-99.99,,,0.00,weatherlink.com 1.10,2013-07-06 13:25:00,
2013-07-06 09:40:00,81.5,74.0,30.13,WSW,242,1.0,-999.0,78,-99.99,,,0.00,weatherlink.com 1.10,2013-07-06 13:40:00,
2013-07-06 09:55:00,84.6,77.0,30.13,WSW,250,12.0,-999.0,78,-99.99,,,0.00,weatherlink.com 1.10,2013-07-06 13:55:00,
2013-07-06 10:11:00,85.6,77.0,30.13,West,267,6.0,-999.0,76,-99.99,,,0.00,weatherlink.com 1.10,2013-07-06 14:11:00,
2013-07-06 10:26:00,85.9,77.0,30.13,WSW,256,11.0,-999.0,75,-99.99,,,0.00,weatherlink.com 1.10,2013-07-06 14:26:00,
2013-07-06 10:41:00,86.6,77.0,30.13,SW,231,4.0,-999.0,73,-99.99,,,0.00,weatherlink.com 1.10,2013-07-06 14:41:00,
2013-07-06 10:56:00,86.9,77.0,30.13,WSW,242,11.0,-999.0,72,-99.99,,,0.00,weatherlink.com 1.10,2013-07-06 14:56:00,
2013-07-06 11:11:00,87.4,77.0,30.13,WSW,241,10.0,-999.0,71,-99.99,,,0.00,weatherlink.com 1.10,2013-07-06 15:11:00,
2013-07-06 11:26:00,88.1,77.0,30.13,WSW,258,9.0,-999.0,69,-99.99,,,0.00,weatherlink.com 1.10,2013-07-06 15:26:00,
2013-07-06 11:41:00,88.3,76.0,30.13,West,262,13.0,-999.0,67,-99.99,,,0.00,weatherlink.com 1.10,2013-07-06 15:41:00,
2013-07-06 11:57:00,88.9,76.0,30.12,West,259,11.0,-999.0,66,-99.99,,,0.00,weatherlink.com 1.10,2013-07-06 15:57:00,
2013-07-06 12:11:00,82.1,73.0,30.12,South,190,11.0,-999.0,74,-99.99,,,0.00,weatherlink.com 1.10,2013-07-06 16:11:00,
2013-07-06 12:26:00,82.1,74.0,30.11,South,181,5.0,-999.0,75,-99.99,,,0.00,weatherlink.com 1.10,2013-07-06 16:26:00,
2013-07-06 12:41:00,78.8,72.0,30.11,SSE,163,6.0,-999.0,79,-99.99,,,0.00,weatherlink.com 1.10,2013-07-06 16:41:00,
2013-07-06 12:57:00,79.2,72.0,30.11,South,176,9.0,-999.0,79,-99.99,,,0.00,weatherlink.com 1.10,2013-07-06 16:57:00,
2013-07-06 13:27:00,77.5,72.0,30.10,SSW,198,12.0,-999.0,83,-99.99,,,0.00,weatherlink.com 1.10,2013-07-06 17:27:00,
2013-07-06 13:42:00,77.7,72.0,30.10,SSW,193,17.0,-999.0,83,-99.99,,,0.00,weatherlink.com 1.10,2013-07-06 17:42:00,
2013-07-06 13:57:00,78.4,73.0,30.10,SSW,193,15.0,-999.0,82,-99.99,,,0.00,weatherlink.com 1.10,2013-07-06 17:57:00,
2013-07-06 14:12:00,78.4,72.0,30.09,SW,215,9.0,-999.0,81,-99.99,,,0.00,weatherlink.com 1.10,2013-07-06 18:12:00,
2013-07-06 14:42:00,78.7,72.0,30.08,South,173,11.0,-999.0,81,-99.99,,,0.00,weatherlink.com 1.10,2013-07-06 18:42:00,
2013-07-06 14:57:00,78.2,72.0,30.08,SSW,194,10.0,-999.0,82,-99.99,,,0.00,weatherlink.com 1.10,2013-07-06 18:57:00,
2013-07-06 15:12:00,78.2,73.0,30.08,SSW,192,19.0,-999.0,83,-99.99,,,0.00,weatherlink.com 1.10,2013-07-06 19:12:00,
2013-07-06 15:42:00,78.8,73.0,30.07,South,184,16.0,-999.0,81,-99.99,,,0.00,weatherlink.com 1.10,2013-07-06 19:42:00,
2013-07-06 15:58:00,78.2,72.0,30.07,SSW,200,9.0,-999.0,81,-99.99,,,0.00,weatherlink.com 1.10,2013-07-06 19:58:00,
2013-07-06 16:13:00,78.2,72.0,30.07,SSW,196,14.0,-999.0,82,-99.99,,,0.00,weatherlink.com 1.10,2013-07-06 20:13:00,
2013-07-06 16:28:00,77.4,72.0,30.07,SSW,198,15.0,-999.0,82,-99.99,,,0.00,weatherlink.com 1.10,2013-07-06 20:28:00,
2013-07-06 16:43:00,77.1,72.0,30.06,SSW,201,12.0,-999.0,83,-99.99,,,0.00,weatherlink.com 1.10,2013-07-06 20:43:00,
2013-07-06 16:58:00,76.0,71.0,30.05,SSW,196,13.0,-999.0,84,-99.99,,,0.00,weatherlink.com 1.10,2013-07-06 20:58:00,
2013-07-06 17:28:00,76.4,71.0,30.05,South,188,15.0,-999.0,84,-99.99,,,0.00,weatherlink.com 1.10,2013-07-06 21:28:00,
2013-07-06 17:43:00,76.5,71.0,30.05,SSW,198,12.0,-999.0,83,-99.99,,,0.00,weatherlink.com 1.10,2013-07-06 21:43:00,
2013-07-06 18:59:00,77.6,71.0,30.04,SSW,208,6.0,-999.0,80,-99.99,,,0.00,weatherlink.com 1.10,2013-07-06 22:59:00,
2013-07-06 19:14:00,77.3,71.0,30.04,SSW,203,10.0,-999.0,80,-99.99,,,0.00,weatherlink.com 1.10,2013-07-06 23:14:00,
2013-07-06 19:29:00,76.9,71.0,30.04,SSW,207,5.0,-999.0,82,-99.99,,,0.00,weatherlink.com 1.10,2013-07-06 23:29:00,
2013-07-06 20:14:00,76.5,71.0,30.04,SSW,201,6.0,-999.0,82,-99.99,,,0.00,weatherlink.com 1.10,2013-07-07 00:14:00,
2013-07-06 20:29:00,76.2,71.0,30.04,SSW,204,5.0,-999.0,83,-99.99,,,0.00,weatherlink.com 1.10,2013-07-07 00:29:00,
2013-07-06 21:29:00,77.3,72.0,30.05,SSW,209,7.0,-999.0,84,-99.99,,,0.00,weatherlink.com 1.10,2013-07-07 01:29:00,
2013-07-06 22:00:00,77.3,72.0,30.06,SW,214,6.0,-999.0,84,-99.99,,,0.00,weatherlink.com 1.10,2013-07-07 02:00:00,
2013-07-06 22:15:00,77.9,72.0,30.06,SW,223,5.0,-999.0,82,-99.99,,,0.00,weatherlink.com 1.10,2013-07-07 02:15:00,
2013-07-06 22:30:00,78.5,73.0,30.07,SW,216,9.0,-999.0,84,-99.99,,,0.00,weatherlink.com 1.10,2013-07-07 02:30:00,
2013-07-06 23:00:00,78.4,73.0,30.07,SW,223,7.0,-999.0,83,-99.99,,,0.00,weatherlink.com 1.10,2013-07-07 03:00:00,
2013-07-06 23:15:00,77.3,72.0,30.07,SW,214,5.0,-999.0,83,-99.99,,,0.00,weatherlink.com 1.10,2013-07-07 03:15:00,